Home   Weather   Pécs   Past weeks

Flag for Hungary Past Weather in Pécs, Hungary — Yesterday and Last 2 Weeks

Now
59 °F

Refreshingly cool.


Feels Like: 59 °F
Forecast: 51 / 73 °F
Wind: 2 mph from Southwest

Location: Pecs / Pogany

Current Time: Apr 27, 2017 at 1:47:26 am

Latest Report: Apr 27, 2017 at 1:00 am


Visibility: N/A

Pressure: 29.85 "Hg

Humidity: 49%

Dew Point: 40 °F

Location of PécsLocation

Past Weather in Pécs — Graph

°F

Pécs Temperature Yesterday

Maximum temperature yesterday: 71 °F (at 2:00 pm)
Minimum temperature yesterday: 50 °F (at 4:00 am)
Average temperature yesterday: 61 °F

High & Low Weather Summary for the Past Weeks

 TemperatureHumidityPressure
High71 °F (Apr 26, 2:00 pm)95% (Apr 19, 8:00 pm)30.40 "Hg (Apr 19, 8:00 pm)
Low33 °F (Apr 19, 8:00 pm)31% (Apr 17, 2:00 pm)29.80 "Hg (Apr 26, 6:00 pm)
Average50 °F58%30.04 "Hg
* Reported Apr 12 12:00 am — Apr 27 12:00 am, Pécs, Weather by CustomWeather, © 2017

Note: Actual official high and low records may vary slightly from our data, if they occured in-between our weather recording intervals... More about our weather records

Advertising

Pécs Weather History for the Previous 24 Hours

Scroll right to see more
 ConditionsComfort  
Time TempWeatherWind HumidityBarometerVisibility
12:00 am
Thu, Apr 27
61 °FRefreshingly cool.3 mph45%29.86 "HgN/A
11:00 pm
Wed, Apr 26
62 °FRefreshingly cool.3 mph42%29.86 "HgN/A
10:00 pm62 °FRefreshingly cool.2 mph44%29.85 "HgN/A
9:00 pm64 °FMild.5 mph40%29.83 "HgN/A
8:00 pm67 °FMild.6 mph36%29.82 "HgN/A
7:00 pm69 °FOvercast.6 mph34%29.81 "Hg43 mi
6:00 pm71 °FOvercast.3 mph34%29.80 "Hg43 mi
5:00 pm71 °FOvercast.5 mph35%29.81 "Hg43 mi
4:00 pm70 °FOvercast.7 mph36%29.81 "Hg43 mi
3:00 pm70 °FOvercast.7 mph37%29.82 "Hg43 mi
2:00 pm71 °FOvercast.7 mph36%29.83 "Hg37 mi
1:00 pm68 °FOvercast.7 mph36%29.84 "Hg37 mi
12:00 pm66 °FOvercast.5 mph45%29.86 "Hg37 mi
11:00 am63 °FOvercast.6 mph44%29.88 "Hg37 mi
10:00 am60 °FOvercast.7 mph47%29.88 "Hg37 mi
9:00 am59 °FOvercast.5 mph49%29.89 "Hg37 mi
8:00 am55 °FOvercast.6 mph53%29.88 "Hg37 mi
7:00 am53 °FCool.5 mph54%29.89 "HgN/A
6:00 am52 °FCool.5 mph59%29.88 "HgN/A
5:00 am51 °FCool.3 mph62%29.87 "HgN/A
4:00 am50 °FCool.3 mph64%29.88 "HgN/A
3:00 am50 °FCool.3 mph65%29.88 "HgN/A
2:00 am52 °FCool.3 mph61%29.88 "HgN/A
1:00 am54 °FCool.5 mph55%29.89 "HgN/A
Weather by CustomWeather, © 2017

See weather overviewHow to use our weather pages